DW6891 Wynaco WA US current weather conditions

sailwx.info

Last reported at 2019-Dec-13 13:03 UTC.
Time now 2019-Dec-13 13:53 UTC

Location: N 47°18' W 122°08'.
View on Google Maps.

See reports from other nearby stations

  
Tides and Currents Weather Stations Pressure Air Temp Water Temp Dewpoint Dewpoint Depression Visibility Wind Speed Wind Dir Waves Ship Positions
date/time (UTC)wind fromknots sea level pressurealtimeterstation pressurevisibilityair tempwater tempwave heightnotes
2019-Dec-13 13:03
2019-Dec-13 12:53
2019-Dec-13 12:33
2019-Dec-13 12:24
2019-Dec-13 12:13
2019-Dec-13 12:03
2019-Dec-13 11:43
2019-Dec-13 11:23
2019-Dec-13 11:13
2019-Dec-13 11:03
2019-Dec-13 10:53
2019-Dec-13 10:44
2019-Dec-13 10:33
2019-Dec-13 10:23
2019-Dec-13 10:03
2019-Dec-13 09:43 115 5.6
2019-Dec-13 09:33 360 5.6
2019-Dec-13 09:23 243 5.6
2019-Dec-13 09:13 174 6.1
2019-Dec-13 09:03 193 6.1
2019-Dec-13 08:53 203 6.1
2019-Dec-13 08:43 152 6.1
2019-Dec-13 08:33 079 6.1
2019-Dec-13 08:23 238 6.1
2019-Dec-13 08:13 131 6.1
2019-Dec-13 08:03 107 6.1
2019-Dec-13 07:53 108 6.1
2019-Dec-13 07:43 099 6.1
2019-Dec-13 07:33 117 6.1
2019-Dec-13 07:23 107 6.1
2019-Dec-13 07:13 160 6.1
2019-Dec-13 07:03 102 6.1
2019-Dec-13 06:53 122 6.1
2019-Dec-13 06:43 247 6.1
2019-Dec-13 06:33 229 6.1
2019-Dec-13 06:23 204 6.1
2019-Dec-13 06:13 169 6.1
2019-Dec-13 06:03 242 6.1
2019-Dec-13 05:53 210 6.1
2019-Dec-13 05:43 233 6.1
2019-Dec-13 05:33 186 6.1
2019-Dec-13 05:23 240 6.1
2019-Dec-13 05:13 128 6.1
2019-Dec-13 05:04 114 6.7
2019-Dec-13 04:53 233 6.1
2019-Dec-13 04:43 078 6.1
2019-Dec-13 04:33 219 6.1
2019-Dec-13 04:23 205 6.1
2019-Dec-13 04:13 226 6.1
2019-Dec-13 04:04 252 6.1
2019-Dec-13 03:53 126 6.1
2019-Dec-13 03:43 125 6.7
2019-Dec-13 03:33 117 6.1
2019-Dec-13 03:23 242 6.7
2019-Dec-13 03:13 232 6.7
2019-Dec-13 03:03 205 6.7
2019-Dec-13 02:53 129 6.7
2019-Dec-13 02:43 225 6.1
2019-Dec-13 02:33 139 6.1
2019-Dec-13 02:23 125 6.1
2019-Dec-13 02:13 072 6.1
2019-Dec-13 02:03 158 6.1
2019-Dec-13 01:53 136 6.1
2019-Dec-13 01:43 111 6.1
2019-Dec-13 01:33 160 6.1
2019-Dec-13 01:23 136 6.1
2019-Dec-13 01:13 163 6.1
2019-Dec-13 01:03 133 6.1
2019-Dec-13 00:53 201 6.1
2019-Dec-13 00:43 160 6.1
2019-Dec-13 00:33 214 6.1
2019-Dec-13 00:23 271 6.1
2019-Dec-13 00:13 278 6.1
2019-Dec-13 00:03 068 6.1
2019-Dec-12 23:53 125 6.1
2019-Dec-12 23:43 090 6.1
2019-Dec-12 23:33 077 6.1
2019-Dec-12 23:23 127 6.1
2019-Dec-12 23:13 129 6.7
2019-Dec-12 23:03 222 6.7
2019-Dec-12 22:53 143 7.2
2019-Dec-12 22:43 195 7.2
2019-Dec-12 22:33 262 7.8
2019-Dec-12 22:23 302 7.8
2019-Dec-12 22:13 307 8.3
2019-Dec-12 22:03 099 8.3
2019-Dec-12 21:53 133 8.3
2019-Dec-12 21:43 096 8.3
2019-Dec-12 21:33 095 7.8
2019-Dec-12 21:23 122 8.3
2019-Dec-12 21:13 117 7.8
2019-Dec-12 21:03 139 7.8
2019-Dec-12 20:53 096 7.8
2019-Dec-12 20:43 110 7.8
2019-Dec-12 20:33 130 7.8
2019-Dec-12 20:23 145 7.8
2019-Dec-12 20:13 118 7.8
2019-Dec-12 20:03 125 7.8
2019-Dec-12 19:53 152 7.2
2019-Dec-12 19:43 129 7.8
2019-Dec-12 19:33 141 7.8
2019-Dec-12 19:13 207 7.8
2019-Dec-12 19:03 142 7.8
2019-Dec-12 18:53 086 8.3
2019-Dec-12 18:43 276 8.3
2019-Dec-12 18:33 207 8.3
2019-Dec-12 18:23 145 8.9
2019-Dec-12 18:13 259 8.3
2019-Dec-12 18:03 087 8.3
2019-Dec-12 17:53 141 8.3
2019-Dec-12 17:43 120 8.3
2019-Dec-12 17:33 143 8.3
2019-Dec-12 17:23 115 8.3
2019-Dec-12 17:13 117 8.3
2019-Dec-12 17:03 101 8.3
2019-Dec-12 16:53 109 7.8
2019-Dec-12 16:43 113 284 7.2
2019-Dec-12 16:33
2019-Dec-12 16:13
2019-Dec-12 16:03
2019-Dec-12 15:53
2019-Dec-12 15:43
2019-Dec-12 15:23
2019-Dec-12 15:13
2019-Dec-12 15:03
2019-Dec-12 14:53
2019-Dec-12 14:43
2019-Dec-12 14:33
2019-Dec-12 14:23
2019-Dec-12 14:13
2019-Dec-12 14:03
2019-Dec-12 13:53
2019-Dec-12 13:43
2019-Dec-12 13:33
2019-Dec-12 13:23
2019-Dec-12 13:13
2019-Dec-12 13:03
2019-Dec-12 12:53
2019-Dec-12 12:43
2019-Dec-12 12:33
2019-Dec-12 12:23
2019-Dec-12 12:13
2019-Dec-12 12:03
2019-Dec-12 11:53
2019-Dec-12 11:33
2019-Dec-12 11:23
2019-Dec-12 11:13
2019-Dec-12 11:03
2019-Dec-12 10:53
2019-Dec-12 10:43
2019-Dec-12 10:33 307 7.8
2019-Dec-12 10:23 131 8.3
2019-Dec-12 10:13 203 8.3
2019-Dec-12 10:03 263 8.3
2019-Dec-12 09:53 224 8.3
2019-Dec-12 09:43 217 8.3
2019-Dec-12 09:33 257 8.3
2019-Dec-12 09:23 276 8.3
2019-Dec-12 09:13 231 8.3
2019-Dec-12 09:03 127 8.3
2019-Dec-12 08:53 205 8.3
2019-Dec-12 08:43 211 8.3
2019-Dec-12 08:33 097 8.3
2019-Dec-12 08:23 231 7.8
2019-Dec-12 08:13 148 7.8
2019-Dec-12 08:03 170 7.8
2019-Dec-12 07:53 225 7.8
2019-Dec-12 07:43 131 7.8
2019-Dec-12 07:23 092 7.8
2019-Dec-12 07:03 117 6.7
2019-Dec-12 06:53 269 6.1
2019-Dec-12 06:43 022 6.1
2019-Dec-12 06:33 075 6.1
2019-Dec-12 06:23 091 6.1
2019-Dec-12 06:13 008 6.1
2019-Dec-12 06:03 326 6.1
2019-Dec-12 05:53 087 5.6
2019-Dec-12 05:43 099 6.1
2019-Dec-12 05:33 181 5.6
2019-Dec-12 05:23 110 6.1
2019-Dec-12 05:13 128 6.1
2019-Dec-12 05:03 096 6.1
2019-Dec-12 04:53 086 6.1
2019-Dec-12 04:43 160 6.1
2019-Dec-12 04:33 063 6.1
2019-Dec-12 04:23 082 6.1
2019-Dec-12 04:13 051 6.1
2019-Dec-12 04:03 098 6.1
2019-Dec-12 03:53 105 6.1
2019-Dec-12 03:43 051 6.1
2019-Dec-12 03:33 097 6.1
2019-Dec-12 03:23 065 6.1
2019-Dec-12 03:13 108 6.1
2019-Dec-12 03:03 089 6.1
2019-Dec-12 02:53 174 6.7
2019-Dec-12 02:43 174 6.7
2019-Dec-12 02:33 071 6.7
2019-Dec-12 02:23 071 6.7
2019-Dec-12 02:13 110 6.7
2019-Dec-12 02:03 110 6.7
2019-Dec-12 01:53 110 7.2
2019-Dec-12 01:43 121 7.2
2019-Dec-12 01:33 083 7.2
2019-Dec-12 01:23 098 7.2
2019-Dec-12 01:13 094 7.2
2019-Dec-12 01:03 120 7.2
2019-Dec-12 00:53 120 7.2
2019-Dec-12 00:43 120 7.2
2019-Dec-12 00:33 120 7.2
2019-Dec-12 00:23 120 7.8
2019-Dec-12 00:13 120 7.8
2019-Dec-12 00:03 120 7.8
2019-Dec-11 23:53 120 7.8
2019-Dec-11 23:43 120 7.8
2019-Dec-11 23:33 120 7.8
2019-Dec-11 23:23 120 7.8
2019-Dec-11 23:13 120 7.8
2019-Dec-11 23:03 120 8.3
2019-Dec-11 22:53 095 8.3
2019-Dec-11 22:43 095 8.3
2019-Dec-11 22:33 095 8.3
2019-Dec-11 22:23 094 8.3
2019-Dec-11 22:13 094 8.3
2019-Dec-11 22:03 095 7.8
2019-Dec-11 21:53 095 7.8
2019-Dec-11 21:43 095 7.8
2019-Dec-11 21:33 135 7.2
2019-Dec-11 21:23 122 7.2
2019-Dec-11 21:13 115 7.2
2019-Dec-11 21:03 098 7.2
2019-Dec-11 20:53 103 7.2
2019-Dec-11 20:43 087 6.7
2019-Dec-11 20:33 097 6.7
2019-Dec-11 20:23 087 6.7
2019-Dec-11 20:13 167 6.7
2019-Dec-11 20:03 141 6.7
2019-Dec-11 19:53 274 6.7
2019-Dec-11 19:43 215 7.2
2019-Dec-11 19:33 255 7.2
2019-Dec-11 19:23 262 6.7
2019-Dec-11 19:13 104 7.2
2019-Dec-11 19:04 104 7.2
2019-Dec-11 18:53 104 6.7
2019-Dec-11 18:43 104 6.7
2019-Dec-11 18:34 104 6.7
2019-Dec-11 18:23 104 6.7
2019-Dec-11 18:14 104 6.1
2019-Dec-11 18:03 104 6.1
2019-Dec-11 17:53 104 6.1
2019-Dec-11 17:44 105 6.1
2019-Dec-11 17:33 104 5.6
2019-Dec-11 17:24 108 5.6
2019-Dec-11 17:13 145 5.6
2019-Dec-11 17:03
2019-Dec-11 16:54
2019-Dec-11 16:34
2019-Dec-11 16:13
2019-Dec-11 16:04
2019-Dec-11 15:13
2019-Dec-11 15:04
2019-Dec-11 14:34
2019-Dec-11 14:24
2019-Dec-11 14:14
2019-Dec-11 14:03
2019-Dec-11 13:43
2019-Dec-11 13:33
2019-Dec-11 13:22
2019-Dec-11 13:13